Location: Bu�n Treun
(12.1333°N, 108.3167°E)
Time: 02:02:46
(UTC+00:00)

BEESAT - Pass Details

Date: 27 September 2021
Orbit: 699 x 709 km, 98.6° (Epoch: 25 October)

Event Time Altitude Azimuth Distance (km) Brightness Sun altitude
Rises 11:50:54 0° 18° (NNE) 3,072 ? -18.3°
Reaches altitude 10° 11:53:10 10° 21° (NNE) 2,154 ? -18.8°
Maximum altitude 11:57:50 62° 102° (ESE) 784 ? -20.0°
Drops below altitude 10° 12:02:30 10° 183° (S) 2,156 ? -21.1°
Sets 12:04:46 0° 186° (S) 3,074 ? -21.7°
